Location: The Saddle
(36.8333°N, 80.3417°W)
Time: 15:44:13
(UTC-05:00)

A-11 Canister half - Pass Details

Date: 10 December 2023
Orbit: 1526 x 1682 km, 47.3° (Epoch: 01 March)

Event Time Altitude Azimuth Distance (km) Brightness Sun altitude
Rises 23:25:08 0° 301° (WNW) 4,927 11.9 -72.5°
Enters shadow 23:25:50 - 302° (WNW) 4,707 11.8 -72.6°
Reaches altitude 10° 23:28:20 10° 303° (WNW) 3,928 - -73.0°
Maximum altitude 23:38:27 81° 31° (NNE) 1,659 - -74.1°
Drops below altitude 10° 23:48:14 10° 119° (ESE) 3,807 - -75.0°
Sets 23:51:17 0° 121° (ESE) 4,770 - -75.3°
